SVA389 OEJN-HECA

Flight info

Callsign SVA389
Flight time N/A
Altitude 40000
Route MIGDA2W/34C MIGDA L677 CVO
Aircraft A333/H-SDE3GHIJ2J3J5M1RVWXY/LB2D1

Departure

Time N/A
Airport King Abdulaziz International Airport (OEJN)

Arrival

Time 2026-05-07 19:21
Airport Cairo International Airport (HECA)
Time Latitude Longitude Altitude Speed Heading
2026-05-07 18:59 28.88385 32.67199 37898 ft 437 kts 318°
2026-05-07 19:00 28.92139 32.63276 37915 ft 434 kts 318°
2026-05-07 19:00 28.97203 32.57557 37872 ft 432 kts 313°
2026-05-07 19:00 28.99185 32.55056 37356 ft 426 kts 314°
2026-05-07 19:01 29.01193 32.52498 36324 ft 427 kts 314°
2026-05-07 19:01 29.02490 32.50846 35844 ft 423 kts 314°
2026-05-07 19:01 29.04434 32.48359 35264 ft 416 kts 315°
2026-05-07 19:01 29.06994 32.45092 34319 ft 411 kts 315°
2026-05-07 19:02 29.08882 32.42676 33636 ft 408 kts 315°
2026-05-07 19:02 29.10759 32.40278 32978 ft 405 kts 315°
2026-05-07 19:02 29.12558 32.37974 32453 ft 399 kts 316°
2026-05-07 19:02 29.14371 32.35654 31795 ft 398 kts 315°
2026-05-07 19:03 29.15562 32.34124 31288 ft 399 kts 315°
2026-05-07 19:03 29.17425 32.31739 30675 ft 395 kts 314°
2026-05-07 19:03 29.19845 32.28629 29951 ft 389 kts 314°
2026-05-07 19:03 29.21643 32.26317 29232 ft 388 kts 314°
2026-05-07 19:04 29.23438 32.24013 28619 ft 385 kts 314°
2026-05-07 19:04 29.24643 32.22461 28265 ft 382 kts 314°
2026-05-07 19:04 29.26409 32.20190 27664 ft 380 kts 314°
2026-05-07 19:04 29.28157 32.17941 27038 ft 378 kts 314°
2026-05-07 19:05 29.30458 32.14977 26362 ft 372 kts 314°
2026-05-07 19:05 29.32183 32.12754 25706 ft 371 kts 313°
2026-05-07 19:05 29.33892 32.10549 25123 ft 369 kts 313°
2026-05-07 19:05 29.35590 32.08358 24538 ft 367 kts 314°
2026-05-07 19:06 29.37199 32.06281 24049 ft 363 kts 313°
2026-05-07 19:06 29.40570 32.01926 22854 ft 360 kts 313°
2026-05-07 19:06 29.41672 32.00499 22531 ft 358 kts 313°
2026-05-07 19:07 29.43310 31.98382 21995 ft 355 kts 313°
2026-05-07 19:07 29.45485 31.95565 21325 ft 351 kts 313°
2026-05-07 19:07 29.46573 31.94157 20957 ft 349 kts 313°
2026-05-07 19:07 29.48716 31.91379 20180 ft 349 kts 313°
2026-05-07 19:08 29.49787 31.89993 19846 ft 347 kts 313°
2026-05-07 19:08 29.51906 31.87242 19096 ft 343 kts 313°
2026-05-07 19:08 29.52798 31.86086 18785 ft 341 kts 313°
2026-05-07 19:08 29.54815 31.83243 17885 ft 343 kts 304°
2026-05-07 19:09 29.55560 31.81897 17599 ft 338 kts 310°
2026-05-07 19:09 29.57527 31.79092 16846 ft 332 kts 311°
2026-05-07 19:09 29.58997 31.77064 16158 ft 331 kts 312°
2026-05-07 19:09 29.60471 31.75064 15459 ft 327 kts 312°
2026-05-07 19:10 29.61946 31.73083 14792 ft 324 kts 312°
2026-05-07 19:10 29.63407 31.71128 14035 ft 324 kts 312°
2026-05-07 19:10 29.64868 31.69176 13393 ft 319 kts 313°
2026-05-07 19:10 29.66301 31.67261 12703 ft 318 kts 312°
2026-05-07 19:11 29.67737 31.65342 12094 ft 313 kts 312°
2026-05-07 19:11 29.68671 31.64091 11682 ft 310 kts 312°
2026-05-07 19:11 29.70056 31.62237 11075 ft 306 kts 312°
2026-05-07 19:11 29.71932 31.59731 10162 ft 307 kts 312°
2026-05-07 19:12 29.72841 31.58515 9902 ft 305 kts 312°
2026-05-07 19:12 29.74677 31.56058 9433 ft 300 kts 312°
2026-05-07 19:12 29.76030 31.54246 8979 ft 300 kts 313°
2026-05-07 19:12 29.76932 31.53037 8706 ft 299 kts 313°
2026-05-07 19:13 29.78289 31.51219 8339 ft 295 kts 313°
2026-05-07 19:13 29.79622 31.49433 7900 ft 295 kts 313°
2026-05-07 19:13 29.81416 31.47027 7336 ft 294 kts 313°
2026-05-07 19:13 29.82738 31.45254 6951 ft 292 kts 313°
2026-05-07 19:14 29.83620 31.44069 6688 ft 291 kts 314°
2026-05-07 19:14 29.84941 31.42294 6321 ft 289 kts 314°
2026-05-07 19:14 29.86236 31.40556 5922 ft 288 kts 314°
2026-05-07 19:14 29.87542 31.38803 5552 ft 286 kts 314°
2026-05-07 19:15 29.89262 31.36488 5052 ft 283 kts 314°
2026-05-07 19:15 29.90558 31.34746 4653 ft 283 kts 314°
2026-05-07 19:15 29.91424 31.33581 4392 ft 282 kts 314°
2026-05-07 19:15 29.93123 31.31294 3904 ft 280 kts 314°
2026-05-07 19:16 29.93967 31.30155 3672 ft 279 kts 315°
2026-05-07 19:16 29.95230 31.28458 3291 ft 278 kts 315°
2026-05-07 19:16 29.96753 31.27128 2854 ft 269 kts 340°
2026-05-07 19:16 29.99077 31.26953 2660 ft 232 kts 19°
2026-05-07 19:17 30.00463 31.27591 2631 ft 206 kts 30°
2026-05-07 19:17 30.01179 31.28285 2644 ft 196 kts 47°
2026-05-07 19:17 30.02341 31.29780 2586 ft 184 kts 46°
2026-05-07 19:17 30.03208 31.30905 2340 ft 185 kts 47°
2026-05-07 19:18 30.04036 31.31994 2095 ft 169 kts 47°
2026-05-07 19:18 30.04532 31.32648 2006 ft 154 kts 47°
2026-05-07 19:18 30.05191 31.33518 1802 ft 130 kts 47°
2026-05-07 19:18 30.05951 31.34524 1577 ft 122 kts 47°
2026-05-07 19:19 30.06316 31.35007 1465 ft 119 kts 47°
2026-05-07 19:19 30.06833 31.35688 1325 ft 119 kts 46°
2026-05-07 19:19 30.07564 31.36654 1117 ft 119 kts 46°
2026-05-07 19:19 30.07928 31.37135 1012 ft 119 kts 47°
2026-05-07 19:20 30.08483 31.37853 864 ft 120 kts 47°
2026-05-07 19:20 30.09026 31.38578 728 ft 119 kts 49°
2026-05-07 19:20 30.09581 31.39309 551 ft 121 kts 46°
2026-05-07 19:20 30.10140 31.40045 398 ft 120 kts 46°
2026-05-07 19:21 30.10572 31.40620 391 ft 81 kts 50°
2026-05-07 19:21 30.10980 31.41165 391 ft 63 kts 47°
2026-05-07 19:21 30.11166 31.41409 391 ft 57 kts 49°
2026-05-07 19:21 30.11452 31.41611 390 ft 24 kts 18°
2026-05-07 19:22 30.11537 31.41626 390 ft 15 kts 346°
2026-05-07 19:22 30.11568 31.41573 390 ft 8 kts 259°
2026-05-07 19:22 30.11538 31.41513 390 ft 8 kts 229°
2026-05-07 19:22 30.11500 31.41463 390 ft 3 kts 228°
2026-05-07 19:23 30.11486 31.41445 390 ft 3 kts 229°
2026-05-07 19:23 30.11469 31.41423 390 ft 5 kts 228°
2026-05-07 19:23 30.11408 31.41344 390 ft 20 kts 229°
2026-05-07 19:23 30.11296 31.41191 390 ft 27 kts 229°
2026-05-07 19:24 30.11174 31.41030 390 ft 26 kts 229°
2026-05-07 19:24 30.11063 31.40874 390 ft 16 kts 249°
2026-05-07 19:24 30.11084 31.40761 390 ft 14 kts 251°
2026-05-07 19:24 30.11009 31.40652 390 ft 22 kts 228°
2026-05-07 19:25 30.10915 31.40485 390 ft 25 kts 273°
2026-05-07 19:25 30.10963 31.40313 390 ft 13 kts 306°
2026-05-07 19:25 30.11033 31.40307 390 ft 7 kts 13°
2026-05-07 19:25 30.11054 31.40313 390 ft 0 kts 15°